Location: Carabito
(9.8355°N, 67.9249°W)
Time: 20:12:15
(UTC+00:00)

Cosmos 292 Rocket - Pass Details

Date: 23 May 2024
Orbit: 667 x 689 km, 74.0° (Epoch: 23 June)

Event Time Altitude Azimuth Distance (km) Brightness Sun altitude
Exits shadow 09:14:13 - 196° (SSW) 2,318 6.1 -13.5°
Reaches altitude 10° 09:14:49 10° 196° (SSW) 2,085 5.9 -13.4°
Maximum altitude 09:19:29 78° 282° (WNW) 684 3.6 -12.3°
Drops below altitude 10° 09:24:11 10° 9° (N) 2,087 6.7 -11.2°
Sets 09:26:28 0° 11° (N) 3,001 7.6 -10.7°
